This is the latest recevied weather packets stored in our database for station/object KF6ILA. If no packets are shown the sender has not sent any weather packets the latest 10 day(s).
| Time | Temp. | Humidity | Pressure | Rain* | Wind** | Luminosity | Snow |
|---|---|---|---|---|---|---|---|
| 1788126902 | 29.44° C | 33% | 1015.2 hPa | 0 mm | - | 809 W/m² | - |
| 1788126308 | 28.89° C | 34% | 1015.3 hPa | 0 mm | - | 833 W/m² | - |
| 1788126011 | 28.89° C | 34% | 1015.4 hPa | 0 mm | - | 840 W/m² | - |
| 1788125417 | 29.44° C | 34% | 1015.5 hPa | 0 mm | - | 863 W/m² | - |
| 1788124823 | 29.44° C | 34% | 1015.6 hPa | 0 mm | - | 872 W/m² | - |
| 1788124526 | 29.44° C | 35% | 1015.6 hPa | 0 mm | - | 881 W/m² | - |
| 1788123932 | 29.44° C | 34% | 1015.7 hPa | 0 mm | - | 898 W/m² | - |
| 1788123338 | 30° C | 34% | 1015.8 hPa | 0 mm | - | 912 W/m² | - |
| 1788122744 | 29.44° C | 34% | 1015.8 hPa | 0 mm | - | 921 W/m² | - |
| 1788122447 | 29.44° C | 34% | 1015.9 hPa | 0 mm | - | 926 W/m² | - |
| 1788121556 | 29.44° C | 33% | 1016 hPa | 0 mm | - | 935 W/m² | - |
| 1788121259 | 29.44° C | 35% | 1016 hPa | 0 mm | - | 937 W/m² | - |
| 1788120962 | 29.44° C | 36% | 1016.2 hPa | 0 mm | - | 946 W/m² | - |
| 1788120665 | 29.44° C | 36% | 1016.1 hPa | 0 mm | - | 947 W/m² | - |
| 1788120071 | 29.44° C | 35% | 1016.1 hPa | 0 mm | - | 956 W/m² | - |
| 1788119774 | 29.44° C | 35% | 1016 hPa | 0 mm | - | 954 W/m² | - |
| 1788119180 | 29.44° C | 34% | 1016.2 hPa | 0 mm | - | 956 W/m² | - |
| 1788118883 | 30° C | 33% | 1016.1 hPa | 0 mm | - | 960 W/m² | - |
| 1788118289 | 30° C | 33% | 1016.3 hPa | 0 mm | - | 954 W/m² | - |
| 1788117695 | 29.44° C | 33% | 1016.2 hPa | 0 mm | - | 954 W/m² | - |
| 1788116804 | 29.44° C | 32% | 1016.4 hPa | 0 mm | - | 942 W/m² | - |
| 1788116210 | 28.89° C | 33% | 1016.5 hPa | 0 mm | - | 937 W/m² | - |
| 1788115913 | 28.89° C | 33% | 1016.6 hPa | 0 mm | - | 933 W/m² | - |
| 1788114428 | 28.89° C | 33% | 1016.8 hPa | 0 mm | - | 900 W/m² | - |
| 1788113834 | 28.89° C | 32% | 1016.9 hPa | 0 mm | - | 886 W/m² | - |
* Rain latest hour (hover to see other rain measurements)
** Current wind speed in m/s (hover to see current wind gust speed)